234  
ASUS41 KBTV 201830  
RWRBTV  
VERMONT REGIONAL WEATHER ROUNDUP  
NATIONAL WEATHER SERVICE BURLINGTON VT  
200 PM EDT SAT APR 20 2019  
 
NOTE: "FAIR" INDICATES FEW OR NO CLOUDS BELOW 12,000 FEET WITH NO  
SIGNIFICANT WEATHER AND/OR S TO VISIBILITY
.  
 
* THESE REPORTS ARE NOT UNDER NWS QUALITY CONTROL AND/OR DO NOT  
REPORT WEATHER SUCH AS PRECIPITATION AND FOG.
 
 
VTZ001>019-201900-  
_____VERMONT_____  
 
 
CITY SKY/WX TMP DP RH WIND PRES REMARKS
 
BURLINGTON LGT RAIN 44 41 89 W7 29.86S  
6HR MIN TEMP: 42; 6HR MAX TEMP: 44; 6HR PCP: 0.09;  
 
MONTPELIER RAIN 48 47 96 CALM 29.89S FOG  
6HR MIN TEMP: 46; 6HR MAX TEMP: 48; 6HR PCP: 0.21;  
 
MORRISVILLE LGT RAIN 46 44 93 N7 29.86F  
6HR MIN TEMP: 44; 6HR MAX TEMP: 47; 6HR PCP: 0.16;  
 
ST. JOHNSBURY* N/A 53 53 100 MISG 29.84R  
6HR MIN TEMP: 53; 6HR MAX TEMP: 71; 6HR PCP: 0.14;  
 
LYNDONVILLE* RAIN 50 49 97 CALM 29.89R  
6HR MIN TEMP: 47; 6HR MAX TEMP: 54;  
 
MIDDLEBURY* RAIN 43 42 97 N3 29.84S  
6HR MIN TEMP: 40; 6HR MAX TEMP: 43; 6HR PCP: 0.36;  
 
RUTLAND* CLOUDY 46 46 100 CALM 29.83F  
6HR MIN TEMP: 43; 6HR MAX TEMP: 46; 6HR PCP: 0.27;  
 
SPRINGFIELD LGT RAIN 65 63 93 CALM 29.82R  
6HR MIN TEMP: 63; 6HR MAX TEMP: 67; 6HR PCP: 0.45;  
 
HIGHGATE* CLOUDY 44 44 100 CALM 29.86R FOG  
6HR MIN TEMP: 39; 6HR MAX TEMP: 45;  
 
NEWPORT* RAIN 41 41 100 CALM 29.89F  
6HR MIN TEMP: 40; 6HR MAX TEMP: 42;  
 
BENNINGTON PTSUNNY 69 60 73 S13G22 29.75F  
6HR MIN TEMP: 64; 6HR MAX TEMP: 71; 6HR PCP: 0.45;  
 
ISLAND POND* N/A 46 N/A N/A CALM N/A  
GALLUP MILLS* N/A 45 N/A N/A MISG N/A  
LAKE EDEN* N/A 41 N/A N/A NE3 N/A  
MT. MANSFIELD* N/A 54 N/A N/A SE18 N/A  
 
_____LAKE CHAMPLAIN_____  
 
 
CITY SKY/WX TMP DP RH WIND PRES REMARKS
 
BURTON ISLAND* N/A 41 41 100 W1 N/A  
COLCHESTER RF* N/A 41 39 93 N5 N/A  
DIAMOND ISL* N/A 41 41 100 N5 N/A  
 

 
 
NYZ007-026>031-035-052-083-087-201900-  
_____NORTHERN NEW YORK_____  
 
 
CITY SKY/WX TMP DP RH WIND PRES REMARKS
 
PLATTSBURGH CLOUDY 45 42 89 NE6 29.84F  
6HR MIN TEMP: 42; 6HR MAX TEMP: 45; 6HR PCP: TRACE;  
 
SARANAC LAKE CLOUDY 44 42 93 NE8 29.74F  
6HR MIN TEMP: 39; 6HR MAX TEMP: 44;  
 
MASSENA LGT RAIN 43 40 89 NE20G28 29.82F  
6HR MIN TEMP: 42; 6HR MAX TEMP: 43; 6HR PCP: 0.02;  
 
OGDENSBURG* CLOUDY 45 41 87 NE15 29.74F  
POTSDAM* LGT RAIN 43 41 93 NE12G24 29.77F  
WATERTOWN CLOUDY 49 45 86 NE24 29.68F  
6HR MIN TEMP: 42; 6HR MAX TEMP: 50; 6HR PCP: 0.12;  
 
FT DRUM CLOUDY 49 45 84 NE13 29.69  
6HR MIN TEMP: 40; 6HR MAX TEMP: 49; 6HR PCP: 0.05;  
 
ALBANY CLOUDY 68 63 84 S8 29.73F  
6HR MIN TEMP: 64; 6HR MAX TEMP: 68; 6HR PCP: 0.44;  
 
GLENS FALLS CLOUDY 48 46 93 N7 29.78F  
6HR MIN TEMP: 45; 6HR MAX TEMP: 47; 6HR PCP: 0.77;  
 

 
NHZ002-005-011-201900-  
_____NEW HAMPSHIRE_____  
 
 
CITY SKY/WX TMP DP RH WIND PRES REMARKS
 
LEBANON LGT RAIN 66 62 87 N6 29.81F FOG  
6HR MIN TEMP: 65; 6HR MAX TEMP: 70; 6HR PCP: 0.31;  
 
KEENE LGT RAIN 68 64 87 S16G24 29.83S  
6HR MIN TEMP: 64; 6HR MAX TEMP: 68;  
 
MT WASHINGTON RAIN 46 46 100 S51G63 N/A VSB 1/16  
6HR MIN TEMP: 44; 6HR MAX TEMP: 49; 6HR PCP: 0.33;  
 
PLYMOUTH RAIN 62 60 94 CALM 29.85F  
6HR MIN TEMP: 53; 6HR MAX TEMP: 63; 6HR PCP: 0.50;  
 
WHITEFIELD LGT RAIN 62 58 86 NW3 29.87R FOG  
6HR MIN TEMP: 63; 6HR MAX TEMP: 72; 6HR PCP: 0.17;  
 

 
 
_____REGIONAL QUEBEC LOCATIONS_____  
 
 
CITY SKY/WX TMP DP RH WIND PRES REMARKS
 
MONTREAL CLOUDY 45 41 87 NE17G23 29.89S  
QUEBEC CITY LGT RAIN 45 39 81 E20G30 30.01R  
SHERBROOKE LGT RAIN 43 43 100 NE9 29.86F  
 
_____REGIONAL ONTARIO LOCATIONS_____  
 
 
CITY SKY/WX TMP DP RH WIND PRES REMARKS
 
OTTAWA LGT RAIN 43 41 93 NE17G26 29.82F FOG  
 
______KEY______  
VSB - VISIBILITY IN MILES  
WCI - WIND CHILL INDEX  
HX - HEAT INDEX  

 
NNNN  
 
 
CLICK HERE TO GO TO PREVIOUS BULLETINS.

The Nexlab VT Page
The Nexlab NY Page Main Text Page